Track OPS 5268 (DMSP 5A F3) now! 10-day predictions OPS 5268 (DMSP 5A F3) is classified as:
1 04953U 71012A 22145.54829312 .00000329 00000-0 11665-3 0 9996 2 04953 98.6638 348.1724 0037996 187.7180 172.3428 14.40556317685066